Printer-friendly version

IAU Minor Planet Center

Minor Planet Center

MPEC 2004-M68 : 2004 MO7

The following Minor Planet Electronic Circular may be linked-to from your own Web pages, but must not otherwise be redistributed electronically.


Read MPEC 2004-M67 Read MPEC 2004-M69


M.P.E.C. 2004-M68                                Issued 2004 June 29, 22:41 UT

     The Minor Planet Electronic Circulars contain information on unusual
         minor planets and routine data on comets.  They are published
   on behalf of Commission 20 of the International Astronomical Union by the
          Minor Planet Center, Smithsonian Astrophysical Observatory,
                          Cambridge, MA 02138, U.S.A.

         Supported in part by the Steven and Michele Kirsch Foundation
             Prepared using the Tamkin Foundation Computer Network

                              MPC@CFA.HARVARD.EDU
          URL http://cfa-www.harvard.edu/iau/mpc.html  ISSN 1523-6714

                                   2004 MO7

Observations:
     K04M07O*2C2004 06 16.28593 10 34 53.99 +09 10 07.4          20.1 R EM068568
     K04M07O 2C2004 06 16.29104 10 34 55.21 +09 09 52.5          20.4 R EM068568
     K04M07O 2C2004 06 16.29618 10 34 56.46 +09 09 37.4          20.5 R EM068568
     K04M07O 2C2004 06 17.32552 10 39 08.69 +08 18 27.0          20.4 R EM068568
     K04M07O 2C2004 06 17.32692 10 39 09.01 +08 18 23.2          20.1 R EM068568
     K04M07O 2C2004 06 17.32832 10 39 09.33 +08 18 19.1          19.8 R EM068568
     K04M07O 2C2004 06 17.32971 10 39 09.71 +08 18 14.6          20.2 R EM068568
     K04M07O 'C2004 06 19.16270 10 46 26.25 +06 49 05.0          19.9 R EM068695
     K04M07O 'C2004 06 19.16449 10 46 26.57 +06 49 00.5          20.0 R EM068695
     K04M07O 'C2004 06 19.16627 10 46 27.07 +06 48 54.7          20.0 R EM068695
     K04M07O 'C2004 06 20.15297 10 50 15.62 +06 02 00.1          20.5 R EM068695
     K04M07O 'C2004 06 20.15514 10 50 16.01 +06 01 53.5          20.1 R EM068695

Observer details:
568 Mauna Kea.  Observers D. J. Tholen, F. Bernardi.
695 Kitt Peak.  Observers R. Tucker, D. J. Tholen, F. Bernardi.

Orbital elements:
2004 MO7
Epoch 2004 June 4.0 TT = JDT 2453160.5                  MPC
M  47.04101              (2000.0)            P               Q
n   0.79249385     Peri.   64.49426     -0.16468973     -0.95328475
a   1.1564817      Node    37.86455     +0.68987779     -0.29481745
e   0.4937296      Incl.   24.36596     +0.70494391     +0.06580921
P   1.24           H   18.5           G   0.15
From 12 observations 2004 June 16-20.

Ephemeris:
2004 MO7                 a,e,i = 1.16, 0.49, 24                  q = 0.5855
Date    TT    R. A. (2000) Decl.     Delta      r     Elong.  Phase     V
2004 06 24    11 04.46   +03 06.4    0.938    1.168    73.3    56.4    20.7
2004 07 04    11 37.44   -03 37.5    1.048    1.244    74.0    51.8    21.0
2004 07 14    12 06.42   -09 13.4    1.169    1.313    73.5    47.9    21.2
2004 07 24    12 32.93   -13 54.9    1.296    1.377    72.0    44.5    21.5
2004 08 03    12 57.92   -17 54.1    1.426    1.436    69.7    41.5    21.7
2004 08 13    13 22.05   -21 20.3    1.556    1.488    67.0    38.8    21.9
2004 08 23    13 45.82   -24 20.3    1.684    1.536    63.9    36.2    22.0

Timothy B. Spahr             (C) Copyright 2004 MPC           M.P.E.C. 2004-M68

Read MPEC 2004-M67 Read MPEC 2004-M69


Our Web policy. Index to the CBAT/MPC/ICQ pages.


Valid HTML 4.01!